Weather in Araxa

Brazil     19°35′42″S   46°56′19″W
temp.,
°C
wind,
m/s
gust,
m/s
humid.,
%
clouds,
%
prec.,
mm/h
press.,
hPa
HPBL,
m
12 may, wed
wed1200:00+13se11696 0.0 101811
03:00+12sse117416 0.0 101710
06:00+11sse118198 0.0 101810
09:00+19nne235192 0.0 1019350
12:00+26nnw34328 0.0 10161739
15:00+28nw34246 0.0 10132536
18:00+19nw22385 0.0 101411
21:00+16s114490 0.0 101711
13 may, thu
thu1300:00+16nw004486 0.0 101711
03:00+14wsw00520 0.0 101611
06:00+12ese11620 0.0 101710
09:00+21e11454 0.0 1018295
12:00+28nnw11320 0.0 10161751
15:00+26sw2338100 0.0 1014471
18:00+22sse355084 0.0 1015103
21:00+19se2357100 0.0 101791
14 may, fri
fri1400:00+17e26685 0.0 1018144
03:00+15se29842 0.0 1018211
06:00+13ese2890100 0.0 1019173
09:00+18ene4668100 0.0 1020445
12:00+23e3447100 0.0 10181150
15:00+25ene134095 0.0 10151724
18:00+21ese2451100 0.0 101680
21:00+19ese2664100 0.0 1017140
15 may, sat
sat1500:00+19e2463100 0.0 101792
03:00+18e376429 0.0 1016246
06:00+14e268591 0.0 1018122
09:00+21ene35595 0.0 1019592
12:00+26n334036 0.0 10161634
15:00+27nnw1237100 0.0 10132102
18:00+22ese115350 0.0 101515
21:00+18sse23745 0.1 101744
16 may, sun
sun1600:00+16ese228386 0.0 101718
03:00+14ese22905 0.0 101717
06:00+14ese11945 0.0 101824
09:00+21ne23615 0.0 1018476
12:00+27nw23388 0.0 10162121
15:00+22ssw585599 0.0 1014329
18:00+19sse1171100 0.1 101513
21:00+19sse116896 0.1 101612